CST,Max TemperatureF,Mean TemperatureF,Min TemperatureF,Max Dew PointF,MeanDew PointF,Min DewpointF,Max Humidity, Mean Humidity, Min Humidity, Max Sea Level PressureIn, Mean Sea Level PressureIn, Min Sea Level PressureIn, Max VisibilityMiles, Mean VisibilityMiles, Min VisibilityMiles, Max Wind SpeedMPH, Mean Wind SpeedMPH, Max Gust SpeedMPH,PrecipitationIn, CloudCover, Events, WindDirDegrees
2013-2-1,41,26,10,31,19,-1,82,70,58,30.42,30.19,30.06,10,10,10,25,11,30,0.00,4,,216
2013-2-2,55,42,29,32,27,21,92,59,26,30.25,30.17,30.09,10,10,10,31,15,39,0.00,2,,289
2013-2-3,50,37,23,30,26,21,88,65,42,30.27,30.06,29.83,10,10,10,24,11,28,0.00,0,,235
2013-2-4,37,32,27,28,26,24,100,82,64,30.05,29.96,29.85,10,10,10,15,9,20,0.00,4,,347
2013-2-5,54,41,27,29,26,22,92,60,28,30.06,30.00,29.89,10,10,10,22,9,25,0.00,2,,271
2013-2-6,54,44,34,43,35,28,100,76,52,30.00,29.90,29.81,10,9,4,28,13,35,0.00,1,,177
2013-2-7,49,38,26,31,28,24,100,73,46,30.27,30.13,29.95,10,9,4,22,11,28,0.00,2,,11
2013-2-8,35,30,25,30,27,24,100,91,82,30.32,30.23,30.07,10,3,0,22,12,28,T,5,Fog,151
2013-2-9,53,42,31,40,33,28,92,69,46,30.06,29.81,29.55,10,8,5,29,19,36,0.05,4,Rain,162
2013-2-10,41,36,31,40,30,21,100,82,64,29.95,29.50,29.19,10,9,2,43,23,55,0.02,8,Rain,281
2013-2-11,36,29,22,20,17,16,81,64,47,30.20,30.15,29.99,10,10,10,35,13,41,0.00,0,,299
2013-2-12,49,35,21,22,18,10,84,54,23,30.18,30.05,29.96,10,10,10,20,10,23,0.00,0,,271
2013-2-13,55,41,26,30,25,21,81,55,29,29.96,29.88,29.79,10,10,10,23,11,26,0.00,1,,276
2013-2-14,44,33,21,31,22,16,85,61,36,30.38,30.16,29.91,10,10,10,37,18,45,0.00,3,,317
2013-2-15,36,25,13,21,15,10,92,68,43,30.44,30.40,30.28,10,10,5,23,11,38,T,3,Snow,302
2013-2-16,50,31,12,28,21,10,92,67,42,30.40,30.13,29.99,10,9,2,20,9,24,0.02,4,Snow,202
2013-2-17,65,44,22,30,26,20,88,55,22,29.99,29.76,29.56,10,10,10,24,9,30,0.00,0,,189
2013-2-18,44,33,21,31,21,15,74,59,44,30.18,29.89,29.57,10,10,10,37,20,46,0.00,3,,339
2013-2-19,30,22,14,16,6,-6,80,52,23,30.40,30.32,30.20,10,10,10,25,11,31,0.00,0,,9
2013-2-20,26,18,10,19,10,2,88,64,40,30.38,30.22,30.09,10,6,1,20,13,24,0.06,7,Snow,105
2013-2-21,20,19,18,18,15,10,92,80,67,30.18,29.98,29.85,10,2,0,29,16,35,0.41,8,Fog-Snow,48
2013-2-22,23,13,3,16,10,3,100,84,68,30.13,30.04,29.88,10,9,4,18,9,22,T,2,Snow,303
2013-2-23,37,22,6,26,16,3,91,76,61,30.05,29.92,29.84,10,9,7,21,10,25,0.00,0,,218
2013-2-24,31,24,17,28,22,16,100,93,85,30.14,29.98,29.85,6,3,0,14,7,16,0.04,7,Fog-Snow,317
2013-2-25,33,26,19,29,25,19,100,89,78,30.13,30.06,29.94,10,4,0,17,9,20,0.01,5,Fog-Snow,3
2013-2-26,29,23,16,25,21,16,100,92,84,30.03,29.92,29.84,10,3,0,17,12,20,0.00,8,Fog,360
2013-2-27,36,30,23,27,23,19,88,75,61,30.21,30.11,29.96,10,10,9,25,18,31,0.00,4,,332
2013-2-28,32,30,27,26,24,23,85,79,72,30.30,30.26,30.20,10,10,9,24,14,29,0.00,8,,345